Regional Weather Roundup
Issued by NWS Goodland, KS

Home | Current Version | Previous Version | Graphics & Text | Print | Product List | Glossary Off
Versions: 1 2 3 4 5 6 7 8 9 10 11 12 13 14 15 16 17 18 19 20 21 22 23 24 25 26 27 28 29 30 31 32 33 34 35 36 37 38 39 40 41 42 43 44 45 46 47 48 49 50

000
ASUS43 KGLD 302108
RWRGLD

GOODLAND FORECAST AREA HOURLY WEATHER ROUNDUP
NATIONAL WEATHER SERVICE GOODLAND KS
300 PM MDT SUN APR 30 2017

...OFFICIAL OBSERVATIONS...

CITY           SKY/WX    TMP DP  RH WIND       PRES   REMARKS
GOODLAND KS    CLOUDY    34  30  85 N23       29.73F
HILL CITY KS   MIX PCPN  35  34  96 N25G39    29.64F FOG
IMPERIAL NEB   CLOUDY    46  21  37 N28G40    29.77F
MCCOOK NEB     LGT SNOW  34  32  92 N25       29.70S
AKRON CO       CLOUDY    53  15  22 N35G44    29.82F
BURLINGTON CO  NOT AVBL
LIMON CO       SUNNY     52  22  30 N36G47    29.81F
$$

...UNOFFICIAL OBSERVATIONS...

CITY           SKY/WX    TMP DP  RH WIND       PRES   REMARKS
LENORA KS        N/A     32  32 100 MISG        N/A
TRENTON NEB      N/A     32  32 100 N15         N/A
KIT CARSON CO    N/A     52  22  30 MISG        N/A
YUMA CO        FAIR      50  21  32 N30G41    29.79S
$$



USA.gov is the U.S. government's official web portal to all federal, state and local government web resources and services.